| time (UTC) | temp F | wind direction | speed MPH | gust MPH | rain 1hr in | rain 24hr in | rain mn in | humidity % | barometer mb |
| 20260507132558 | 0 | 315 | 5.0 | 11.0 | 0.00 | 0.00 | 0.00 | 1 | 1011.7 |
| 20260507131533 | 0 | 315 | 5.0 | 11.0 | 0.00 | 0.00 | 0.00 | 1 | 1012.0 |
| 20260507130527 | 0 | 315 | 5.0 | 14.0 | 0.00 | 0.00 | 0.00 | 1 | 1012.0 |
| 20260507125542 | 0 | 315 | 6.0 | 15.0 | 0.00 | 0.00 | 0.00 | 1 | 1012.1 |
| 20260507124516 | 0 | 315 | 4.0 | 14.0 | 0.00 | 0.00 | 0.00 | 1 | 1012.0 |
| 20260507123610 | 0 | 315 | 5.0 | 11.0 | 0.00 | 0.00 | 0.00 | 1 | 1012.1 |
| 20260507122604 | 0 | 315 | 5.0 | 9.0 | 0.00 | 0.00 | 0.00 | 1 | 1012.2 |
| 20260507121557 | 0 | 315 | 5.0 | 15.0 | 0.00 | 0.00 | 0.00 | 1 | 1012.2 |
| 20260507120552 | 0 | 315 | 6.0 | 11.0 | 0.00 | 0.00 | 0.00 | 1 | 1012.2 |
| 20260507115548 | 0 | 315 | 3.0 | 7.0 | 0.00 | 0.00 | 0.00 | 1 | 1012.2 |
| 20260507114541 | 0 | 315 | 4.0 | 9.0 | 0.00 | 0.00 | 0.00 | 1 | 1012.2 |
| 20260507113536 | 0 | 315 | 3.0 | 6.0 | 0.00 | 0.00 | 0.00 | 1 | 1012.3 |
| 20260507112530 | 0 | 315 | 3.0 | 8.0 | 0.00 | 0.00 | 0.00 | 1 | 1012.4 |
| 20260507111526 | 0 | 315 | 2.0 | 7.0 | 0.00 | 0.00 | 0.00 | 1 | 1012.6 |
| 20260507110519 | 0 | 315 | 3.0 | 9.0 | 0.00 | 0.00 | 0.00 | 1 | 1012.7 |
| 20260507105515 | 0 | 315 | 4.0 | 9.0 | 0.00 | 0.00 | 0.00 | 1 | 1012.8 |
| 20260507104611 | 0 | 315 | 3.0 | 7.0 | 0.00 | 0.00 | 0.00 | 1 | 1012.7 |
| 20260507103605 | 0 | 315 | 2.0 | 7.0 | 0.00 | 0.00 | 0.00 | 1 | 1012.9 |
| 20260507102601 | 0 | 315 | 2.0 | 6.0 | 0.00 | 0.00 | 0.00 | 1 | 1013.0 |
| 20260507101556 | 0 | 315 | 3.0 | 7.0 | 0.00 | 0.00 | 0.00 | 1 | 1013.1 |
| 20260507100550 | 0 | 315 | 1.0 | 4.0 | 0.00 | 0.00 | 0.00 | 1 | 1013.2 |
| 20260507095544 | 0 | 315 | 5.0 | 9.0 | 0.00 | 0.00 | 0.00 | 1 | 1013.2 |
| 20260507094541 | 0 | 315 | 2.0 | 6.0 | 0.00 | 0.00 | 0.00 | 1 | 1013.2 |
| 20260507093535 | 0 | 315 | 2.0 | 9.0 | 0.00 | 0.00 | 0.00 | 1 | 1013.4 |
| 20260507092530 | 0 | 315 | 1.0 | 4.0 | 0.00 | 0.00 | 0.00 | 1 | 1013.3 |
| 20260507091526 | 0 | 315 | 1.0 | 4.0 | 0.00 | 0.00 | 0.00 | 1 | 1013.3 |
| 20260507090520 | 0 | 315 | 3.0 | 7.0 | 0.00 | 0.00 | 0.00 | 1 | 1013.0 |
| 20260507085535 | 0 | 315 | 2.0 | 4.0 | 0.00 | 0.00 | 0.00 | 1 | 1013.1 |
| 20260507084610 | 0 | 315 | 3.0 | 7.0 | 0.00 | 0.00 | 0.00 | 1 | 1013.1 |
| 20260507083605 | 0 | 315 | 4.0 | 8.0 | 0.00 | 0.00 | 0.00 | 1 | 1013.2 |
| 20260507082600 | 0 | 315 | 2.0 | 7.0 | 0.00 | 0.00 | 0.00 | 1 | 1013.2 |
| 20260507081555 | 0 | 315 | 4.0 | 9.0 | 0.00 | 0.00 | 0.00 | 1 | 1013.3 |
| 20260507080629 | 0 | 315 | 2.0 | 7.0 | 0.00 | 0.00 | 0.00 | 1 | 1013.4 |
| 20260507075544 | 0 | 315 | 1.0 | 4.0 | 0.00 | 0.00 | 0.00 | 1 | 1013.4 |
| 20260507074539 | 0 | 315 | 2.0 | 6.0 | 0.00 | 0.00 | 0.00 | 1 | 1013.5 |
| 20260507073534 | 0 | 315 | 1.0 | 4.0 | 0.00 | 0.00 | 0.00 | 1 | 1013.6 |
| 20260507072527 | 0 | 315 | 2.0 | 4.0 | 0.00 | 0.00 | 0.00 | 1 | 1013.6 |
| 20260507071521 | 0 | 315 | 2.0 | 6.0 | 0.00 | 0.00 | 0.00 | 1 | 1013.5 |
| 20260507070616 | 0 | 315 | 0.0 | 2.0 | 0.00 | 0.00 | 0.00 | 1 | 1013.5 |
| 20260507065609 | 0 | 315 | 1.0 | 4.0 | 0.00 | 0.00 | 0.00 | 1 | 1013.2 |
| 20260507064606 | 0 | 315 | 1.0 | 4.0 | 0.00 | 0.00 | 0.00 | 1 | 1013.0 |
| 20260507063559 | 0 | 315 | 1.0 | 2.0 | 0.00 | 0.00 | 0.00 | 1 | 1013.1 |
| 20260507062554 | 0 | 315 | 1.0 | 2.0 | 0.00 | 0.00 | 0.00 | 1 | 1012.9 |
| 20260507061547 | 0 | 315 | 1.0 | 2.0 | 0.00 | 0.00 | 0.00 | 1 | 1012.7 |
| 20260507060543 | 0 | 0.0 | 0.0 | 0.00 | 0.00 | 0.00 | 1 | 1012.7 | |
| 20260507055537 | 0 | 315 | 0.0 | 2.0 | 0.00 | 0.00 | 0.00 | 1 | 1012.7 |
| 20260507054533 | 0 | 315 | 0.0 | 2.0 | 0.00 | 0.00 | 0.00 | 1 | 1012.6 |
| 20260507053527 | 0 | 0.0 | 0.0 | 0.00 | 0.00 | 0.00 | 1 | 1012.6 | |
| 20260507052520 | 0 | 315 | 0.0 | 2.0 | 0.00 | 0.00 | 0.00 | 1 | 1012.4 |
| 20260507051535 | 0 | 315 | 1.0 | 2.0 | 0.00 | 0.00 | 0.00 | 1 | 1012.3 |
| 20260507050610 | 0 | 315 | 1.0 | 2.0 | 0.00 | 0.00 | 0.00 | 1 | 1012.2 |
| 20260507045606 | 0 | 315 | 0.0 | 2.0 | 0.00 | 0.00 | 0.00 | 1 | 1012.2 |
| 20260507044559 | 0 | 0.0 | 0.0 | 0.00 | 0.00 | 0.00 | 1 | 1012.1 | |
| 20260507043555 | 0 | 315 | 1.0 | 2.0 | 0.00 | 0.00 | 0.00 | 1 | 1012.2 |
| 20260507042548 | 0 | 315 | 1.0 | 2.0 | 0.00 | 0.00 | 0.00 | 1 | 1012.2 |
| 20260507041542 | 0 | 315 | 1.0 | 2.0 | 0.00 | 0.00 | 0.00 | 1 | 1012.3 |
| 20260507040539 | 0 | 315 | 1.0 | 2.0 | 0.00 | 0.00 | 0.00 | 1 | 1012.4 |
| 20260507035554 | 0 | 315 | 1.0 | 2.0 | 0.00 | 0.00 | 0.00 | 1 | 1012.3 |
| 20260507034549 | 0 | 0.0 | 2.0 | 0.00 | 0.00 | 0.00 | 1 | 1012.2 | |
| 20260507033522 | 0 | 0.0 | 0.0 | 0.00 | 0.00 | 0.00 | 1 | 1012.3 | |
| 20260507032537 | 0 | 315 | 0.0 | 2.0 | 0.00 | 0.00 | 0.00 | 1 | 1012.4 |
| 20260507031632 | 0 | 0.0 | 0.0 | 0.00 | 0.00 | 0.00 | 1 | 1012.4 | |
| 20260507030607 | 0 | 0.0 | 2.0 | 0.00 | 0.00 | 0.00 | 1 | 1012.3 | |
| 20260507025623 | 0 | 315 | 1.0 | 2.0 | 0.00 | 0.00 | 0.00 | 1 | 1012.4 |
| 20260507024558 | 0 | 315 | 1.0 | 4.0 | 0.00 | 0.00 | 0.00 | 1 | 1012.2 |
| 20260507023551 | 0 | 315 | 2.0 | 6.0 | 0.00 | 0.00 | 0.00 | 1 | 1012.2 |
| 20260507022546 | 0 | 315 | 2.0 | 4.0 | 0.00 | 0.00 | 0.00 | 1 | 1012.2 |
| 20260507021541 | 0 | 315 | 2.0 | 4.0 | 0.00 | 0.00 | 0.00 | 1 | 1012.3 |
| 20260507020537 | 0 | 315 | 2.0 | 4.0 | 0.00 | 0.00 | 0.00 | 1 | 1012.2 |
| 20260507015531 | 0 | 315 | 2.0 | 4.0 | 0.00 | 0.00 | 0.00 | 1 | 1012.3 |
| 20260507014547 | 0 | 315 | 3.0 | 7.0 | 0.00 | 0.00 | 0.00 | 1 | 1012.6 |
| 20260507013545 | 0 | 315 | 3.0 | 6.0 | 0.00 | 0.00 | 0.00 | 1 | 1012.6 |
| 20260507012519 | 0 | 315 | 4.0 | 6.0 | 0.00 | 0.00 | 0.00 | 1 | 1012.5 |
| 20260507011612 | 0 | 315 | 3.0 | 6.0 | 0.00 | 0.00 | 0.00 | 1 | 1012.4 |
| 20260507010608 | 0 | 315 | 4.0 | 7.0 | 0.00 | 0.00 | 0.00 | 1 | 1012.5 |
| 20260507005601 | 0 | 315 | 3.0 | 7.0 | 0.00 | 0.00 | 0.00 | 1 | 1012.6 |
| 20260507004558 | 0 | 315 | 3.0 | 6.0 | 0.00 | 0.00 | 0.00 | 1 | 1012.8 |
| 20260507003552 | 0 | 315 | 3.0 | 4.0 | 0.00 | 0.00 | 0.00 | 1 | 1012.7 |
| 20260507002547 | 0 | 315 | 2.0 | 4.0 | 0.00 | 0.00 | 0.00 | 1 | 1012.7 |
| 20260507001542 | 0 | 315 | 3.0 | 7.0 | 0.00 | 0.00 | 0.00 | 1 | 1012.8 |
| 20260507000538 | 0 | 315 | 3.0 | 4.0 | 0.00 | 0.00 | 0.00 | 1 | 1012.9 |
| 20260506235533 | 0 | 315 | 3.0 | 7.0 | 0.00 | 0.00 | 0.00 | 1 | 1013.0 |
| 20260506234528 | 0 | 315 | 3.0 | 7.0 | 0.00 | 0.00 | 0.00 | 1 | 1012.9 |
| 20260506233523 | 0 | 315 | 3.0 | 8.0 | 0.00 | 0.00 | 0.00 | 1 | 1012.9 |
| 20260506232538 | 0 | 315 | 4.0 | 6.0 | 0.00 | 0.00 | 0.00 | 1 | 1012.8 |
| 20260506231612 | 0 | 315 | 3.0 | 6.0 | 0.00 | 0.00 | 0.00 | 1 | 1013.0 |
| 20260506230607 | 0 | 5 | 3.0 | 6.0 | 0.00 | 0.00 | 0.00 | 1 | 1013.0 |
| 20260506225603 | 0 | 349 | 4.0 | 7.0 | 0.00 | 0.00 | 0.00 | 1 | 1012.9 |
| 20260506224555 | 56 | 34 | 5.0 | 7.0 | 0.00 | 0.00 | 0.00 | 27 | 1012.8 |
| 20260506223551 | 56 | 35 | 3.0 | 6.0 | 0.00 | 0.00 | 0.00 | 77 | 1012.9 |
| 20260506222547 | 56 | 34 | 2.0 | 4.0 | 0.00 | 0.00 | 0.00 | 77 | 1012.9 |
| 20260506221539 | 57 | 347 | 2.0 | 4.0 | 0.00 | 0.00 | 0.00 | 77 | 1012.9 |
| 20260506220533 | 57 | 349 | 1.0 | 2.0 | 0.00 | 0.00 | 0.00 | 76 | 1012.8 |
| 20260506215525 | 57 | 63 | 1.0 | 4.0 | 0.00 | 0.00 | 0.00 | 76 | 1012.8 |
| 20260506214521 | 57 | 344 | 1.0 | 4.0 | 0.00 | 0.00 | 0.00 | 76 | 1012.7 |
| 20260506213616 | 57 | 54 | 2.0 | 4.0 | 0.00 | 0.00 | 0.00 | 75 | 1012.7 |
| 20260506212610 | 57 | 57 | 4.0 | 6.0 | 0.00 | 0.00 | 0.00 | 75 | 1012.8 |
| 20260506211626 | 58 | 31 | 3.0 | 7.0 | 0.00 | 0.00 | 0.00 | 74 | 1012.8 |
| 20260506210600 | 58 | 82 | 3.0 | 4.0 | 0.00 | 0.00 | 0.00 | 72 | 1012.7 |
| 20260506205553 | 58 | 93 | 1.0 | 4.0 | 0.00 | 0.00 | 0.00 | 71 | 1012.7 |
| 20260506204548 | 58 | 90 | 1.0 | 2.0 | 0.00 | 0.00 | 0.00 | 70 | 1012.4 |
| 20260506203542 | 58 | 87 | 1.0 | 4.0 | 0.00 | 0.00 | 0.00 | 70 | 1012.3 |
| 20260506202537 | 58 | 101 | 3.0 | 6.0 | 0.00 | 0.00 | 0.00 | 70 | 1012.1 |
| 20260506201530 | 59 | 79 | 2.0 | 6.0 | 0.00 | 0.00 | 0.00 | 70 | 1012.0 |
| 20260506200542 | 59 | 94 | 1.0 | 4.0 | 0.00 | 0.00 | 0.00 | 70 | 1012.0 |
| 20260506195518 | 59 | 110 | 2.0 | 4.0 | 0.00 | 0.00 | 0.00 | 69 | 1011.7 |
| 20260506194615 | 59 | 99 | 2.0 | 4.0 | 0.00 | 0.00 | 0.00 | 70 | 1011.6 |
| 20260506193609 | 59 | 100 | 2.0 | 7.0 | 0.00 | 0.00 | 0.00 | 68 | 1011.4 |
| 20260506192604 | 60 | 89 | 3.0 | 7.0 | 0.00 | 0.00 | 0.00 | 67 | 1011.2 |
| 20260506191557 | 60 | 93 | 4.0 | 9.0 | 0.00 | 0.00 | 0.00 | 67 | 1011.1 |
| 20260506190552 | 60 | 82 | 4.0 | 7.0 | 0.00 | 0.00 | 0.00 | 66 | 1011.0 |
| 20260506185547 | 60 | 87 | 5.0 | 8.0 | 0.00 | 0.00 | 0.00 | 65 | 1010.9 |
| 20260506184542 | 61 | 113 | 4.0 | 9.0 | 0.00 | 0.00 | 0.00 | 64 | 1010.7 |
| 20260506183534 | 61 | 90 | 4.0 | 8.0 | 0.00 | 0.00 | 0.00 | 63 | 1010.5 |
| 20260506182529 | 62 | 113 | 4.0 | 9.0 | 0.00 | 0.00 | 0.00 | 62 | 1010.4 |
| 20260506181543 | 62 | 113 | 6.0 | 11.0 | 0.00 | 0.00 | 0.00 | 61 | 1010.4 |
| 20260506180518 | 63 | 113 | 5.0 | 11.0 | 0.00 | 0.00 | 0.00 | 58 | 1010.2 |
| 20260506175610 | 63 | 100 | 4.0 | 11.0 | 0.00 | 0.00 | 0.00 | 57 | 1010.1 |
| 20260506174605 | 64 | 91 | 6.0 | 14.0 | 0.00 | 0.00 | 0.00 | 55 | 1010.0 |
| 20260506173600 | 66 | 107 | 2.0 | 7.0 | 0.00 | 0.00 | 0.00 | 49 | 1009.8 |
| 20260506172556 | 67 | 168 | 1.0 | 4.0 | 0.00 | 0.00 | 0.00 | 47 | 1009.8 |
| 20260506171548 | 67 | 104 | 1.0 | 4.0 | 0.00 | 0.01 | 0.00 | 47 | 1009.7 |
| 20260506170543 | 66 | 159 | 1.0 | 2.0 | 0.00 | 0.01 | 0.00 | 48 | 1009.7 |
| 20260506165538 | 65 | 114 | 1.0 | 4.0 | 0.00 | 0.01 | 0.00 | 50 | 1009.6 |
| 20260506164530 | 66 | 114 | 3.0 | 11.0 | 0.00 | 0.02 | 0.00 | 50 | 1009.7 |
| 20260506163525 | 65 | 126 | 1.0 | 4.0 | 0.00 | 0.02 | 0.00 | 50 | 1009.6 |
| 20260506162540 | 66 | 19 | 2.0 | 4.0 | 0.00 | 0.02 | 0.00 | 50 | 1009.5 |
| 20260506161615 | 67 | 92 | 3.0 | 6.0 | 0.00 | 0.05 | 0.00 | 48 | 1009.4 |
| 20260506160607 | 68 | 119 | 3.0 | 6.0 | 0.00 | 0.05 | 0.00 | 47 | 1009.4 |
| 20260506155603 | 68 | 138 | 2.0 | 6.0 | 0.00 | 0.17 | 0.00 | 47 | 1009.3 |
| 20260506154556 | 69 | 175 | 2.0 | 7.0 | 0.00 | 0.38 | 0.00 | 47 | 1009.2 |
| 20260506153551 | 68 | 267 | 2.0 | 6.0 | 0.00 | 0.38 | 0.00 | 46 | 1009.2 |
| 20260506152603 | 69 | 151 | 3.0 | 7.0 | 0.00 | 0.38 | 0.00 | 43 | 1009.4 |
| 20260506151539 | 70 | 106 | 2.0 | 7.0 | 0.00 | 0.38 | 0.00 | 44 | 1009.4 |
| 20260506150534 | 70 | 90 | 2.0 | 4.0 | 0.00 | 0.38 | 0.00 | 42 | 1009.5 |
| 20260506145527 | 70 | 161 | 3.0 | 8.0 | 0.00 | 0.38 | 0.00 | 42 | 1009.3 |
| 20260506144541 | 69 | 9 | 2.0 | 6.0 | 0.00 | 0.38 | 0.00 | 42 | 1009.4 |
| 20260506143637 | 69 | 285 | 4.0 | 13.0 | 0.00 | 0.38 | 0.00 | 42 | 1009.8 |
| 20260506142610 | 70 | 0 | 3.0 | 9.0 | 0.00 | 0.38 | 0.00 | 41 | 1009.6 |
| 20260506141604 | 68 | 292 | 6.0 | 11.0 | 0.00 | 0.38 | 0.00 | 43 | 1009.8 |
| 20260506140619 | 68 | 306 | 3.0 | 8.0 | 0.00 | 0.38 | 0.00 | 42 | 1009.8 |
| 20260506135556 | 68 | 295 | 3.0 | 8.0 | 0.00 | 0.38 | 0.00 | 42 | 1010.0 |
| 20260506134550 | 69 | 314 | 4.0 | 11.0 | 0.00 | 0.38 | 0.00 | 42 | 1009.9 |
| 20260506133545 | 70 | 309 | 2.0 | 6.0 | 0.00 | 0.38 | 0.00 | 41 | 1010.1 |